UAL2449 KSFO-KLAS

Flight info

Callsign UAL2449
Flight time 1h 10m
Altitude 31000
Route WESLA5 NTELL Q174 FLCHR COKTL4
Aircraft A319/M-SDE3FGHIRWY/LB1

Departure

Time 2026-05-07 22:48
Airport San Francisco International Airport (KSFO)

Arrival

Time 2026-05-07 23:59
Airport Harry Reid International Airport (KLAS)
Time Latitude Longitude Altitude Speed Heading
2026-05-07 22:17 37.61924 -122.38364 22 ft 0 kts 291°
2026-05-07 22:32 37.61924 -122.38363 22 ft 0 kts 291°
2026-05-07 22:35 37.61921 -122.38354 22 ft 4 kts 291°
2026-05-07 22:35 37.61911 -122.38323 22 ft 4 kts 301°
2026-05-07 22:35 37.61895 -122.38301 22 ft 4 kts 354°
2026-05-07 22:35 37.61887 -122.38301 23 ft 1 kts 27°
2026-05-07 22:37 37.61898 -122.38295 24 ft 4 kts 27°
2026-05-07 22:38 37.61931 -122.38273 22 ft 7 kts 27°
2026-05-07 22:38 37.61970 -122.38225 25 ft 9 kts 85°
2026-05-07 22:38 37.61938 -122.38145 22 ft 12 kts 119°
2026-05-07 22:38 37.61899 -122.38043 22 ft 14 kts 116°
2026-05-07 22:39 37.61849 -122.37926 24 ft 16 kts 118°
2026-05-07 22:39 37.61805 -122.37790 22 ft 17 kts 111°
2026-05-07 22:39 37.61758 -122.37643 22 ft 19 kts 110°
2026-05-07 22:39 37.61708 -122.37487 22 ft 20 kts 118°
2026-05-07 22:40 37.61642 -122.37329 23 ft 21 kts 117°
2026-05-07 22:40 37.61571 -122.37161 23 ft 22 kts 118°
2026-05-07 22:40 37.61496 -122.36982 23 ft 24 kts 118°
2026-05-07 22:40 37.61388 -122.36818 23 ft 25 kts 131°
2026-05-07 22:41 37.61318 -122.36669 24 ft 18 kts 117°
2026-05-07 22:41 37.61257 -122.36524 22 ft 19 kts 117°
2026-05-07 22:41 37.61192 -122.36369 23 ft 21 kts 118°
2026-05-07 22:41 37.61122 -122.36206 23 ft 22 kts 118°
2026-05-07 22:42 37.61061 -122.36062 22 ft 7 kts 118°
2026-05-07 22:42 37.61052 -122.36037 22 ft 0 kts 108°
2026-05-07 22:44 37.61050 -122.36029 22 ft 3 kts 108°
2026-05-07 22:44 37.61048 -122.35990 22 ft 6 kts 79°
2026-05-07 22:44 37.61051 -122.35974 22 ft 0 kts 78°
2026-05-07 22:46 37.61054 -122.35959 22 ft 4 kts 75°
2026-05-07 22:46 37.61080 -122.35921 24 ft 7 kts 37°
2026-05-07 22:46 37.61129 -122.35880 22 ft 10 kts 32°
2026-05-07 22:47 37.61193 -122.35881 22 ft 10 kts 304°
2026-05-07 22:47 37.61202 -122.35905 22 ft 0 kts 297°
2026-05-07 22:47 37.61205 -122.35911 22 ft 4 kts 297°
2026-05-07 22:48 37.61307 -122.36161 24 ft 62 kts 297°
2026-05-07 22:48 37.61608 -122.36872 22 ft 118 kts 297°
2026-05-07 22:48 37.62063 -122.37957 211 ft 147 kts 298°
2026-05-07 22:48 37.62541 -122.38995 1081 ft 130 kts 301°
2026-05-07 22:49 37.63003 -122.39962 1682 ft 134 kts 299°
2026-05-07 22:49 37.63459 -122.41044 2137 ft 145 kts 296°
2026-05-07 22:49 37.63919 -122.42219 2628 ft 154 kts 296°
2026-05-07 22:49 37.64428 -122.43476 3035 ft 171 kts 298°
2026-05-07 22:50 37.65036 -122.44877 3377 ft 194 kts 298°
2026-05-07 22:50 37.65733 -122.46460 3699 ft 219 kts 298°
2026-05-07 22:50 37.66507 -122.48221 4295 ft 237 kts 297°
2026-05-07 22:50 37.66913 -122.50292 4908 ft 255 kts 264°
2026-05-07 22:51 37.66220 -122.52360 5699 ft 265 kts 229°
2026-05-07 22:51 37.64667 -122.53562 6618 ft 274 kts 195°
2026-05-07 22:51 37.62754 -122.53489 7537 ft 283 kts 167°
2026-05-07 22:51 37.60907 -122.52589 8475 ft 287 kts 158°
2026-05-07 22:52 37.59078 -122.51555 9395 ft 289 kts 158°
2026-05-07 22:52 37.57232 -122.50507 10263 ft 295 kts 158°
2026-05-07 22:52 37.55287 -122.49409 10585 ft 318 kts 159°
2026-05-07 22:52 37.53152 -122.48468 10959 ft 334 kts 166°
2026-05-07 22:53 37.50907 -122.47616 11615 ft 341 kts 161°
2026-05-07 22:53 37.48784 -122.46240 12324 ft 348 kts 146°
2026-05-07 22:53 37.47014 -122.44124 13027 ft 356 kts 129°
2026-05-07 22:53 37.45540 -122.41600 13762 ft 359 kts 127°
2026-05-07 22:54 37.44570 -122.39903 14193 ft 362 kts 127°
2026-05-07 22:54 37.43095 -122.37310 14798 ft 366 kts 127°
2026-05-07 22:54 37.41706 -122.34611 15453 ft 369 kts 118°
2026-05-07 22:54 37.40716 -122.31614 16100 ft 374 kts 107°
2026-05-07 22:55 37.40071 -122.28435 16752 ft 377 kts 104°
2026-05-07 22:55 37.39445 -122.25227 17429 ft 379 kts 103°
2026-05-07 22:55 37.38811 -122.21991 18080 ft 382 kts 103°
2026-05-07 22:55 37.38165 -122.18732 18671 ft 386 kts 103°
2026-05-07 22:56 37.37512 -122.15444 19256 ft 389 kts 104°
2026-05-07 22:56 37.36852 -122.12135 19831 ft 392 kts 104°
2026-05-07 22:56 37.36183 -122.08803 20407 ft 395 kts 104°
2026-05-07 22:56 37.35508 -122.05442 20965 ft 398 kts 104°
2026-05-07 22:57 37.34827 -122.02052 21517 ft 402 kts 104°
2026-05-07 22:57 37.34141 -121.98636 22073 ft 404 kts 104°
2026-05-07 22:57 37.33454 -121.95204 22633 ft 407 kts 104°
2026-05-07 22:57 37.32760 -121.91743 23173 ft 410 kts 104°
2026-05-07 22:58 37.32060 -121.88261 23681 ft 413 kts 104°
2026-05-07 22:58 37.31350 -121.84749 24102 ft 416 kts 104°
2026-05-07 22:58 37.30633 -121.81216 24530 ft 419 kts 104°
2026-05-07 22:58 37.29911 -121.77658 24958 ft 421 kts 104°
2026-05-07 22:59 37.29187 -121.74087 25398 ft 423 kts 104°
2026-05-07 22:59 37.28458 -121.70493 25814 ft 426 kts 104°
2026-05-07 22:59 37.27723 -121.66877 26221 ft 429 kts 104°
2026-05-07 22:59 37.26983 -121.63239 26629 ft 431 kts 104°
2026-05-07 23:00 37.26236 -121.59582 27039 ft 434 kts 104°
2026-05-07 23:00 37.25484 -121.55908 27462 ft 436 kts 104°
2026-05-07 23:00 37.24726 -121.52219 27863 ft 438 kts 105°
2026-05-07 23:00 37.23963 -121.48506 28257 ft 441 kts 104°
2026-05-07 23:01 37.23196 -121.44771 28654 ft 443 kts 104°
2026-05-07 23:01 37.22424 -121.41019 29049 ft 445 kts 104°
2026-05-07 23:01 37.21646 -121.37247 29444 ft 448 kts 104°
2026-05-07 23:01 37.20864 -121.33452 29798 ft 451 kts 104°
2026-05-07 23:02 37.20078 -121.29635 30033 ft 453 kts 104°
2026-05-07 23:02 37.18492 -121.21997 30077 ft 452 kts 104°
2026-05-07 23:03 37.16897 -121.14369 30060 ft 452 kts 104°
2026-05-07 23:03 37.15309 -121.06798 30062 ft 452 kts 104°
2026-05-07 23:04 37.13714 -120.99189 30061 ft 452 kts 104°
2026-05-07 23:04 37.12115 -120.91568 30058 ft 453 kts 103°
2026-05-07 23:05 37.10503 -120.83930 30058 ft 453 kts 104°
2026-05-07 23:05 37.08881 -120.76289 30055 ft 454 kts 104°
2026-05-07 23:06 37.07263 -120.68667 30051 ft 452 kts 104°
2026-05-07 23:06 37.05639 -120.61073 30052 ft 452 kts 104°
2026-05-07 23:07 37.04009 -120.53474 30052 ft 452 kts 104°
2026-05-07 23:07 37.02383 -120.45882 30045 ft 452 kts 104°
2026-05-07 23:08 37.00746 -120.38293 30054 ft 452 kts 103°
2026-05-07 23:08 36.99096 -120.30696 30048 ft 452 kts 104°
2026-05-07 23:09 36.97454 -120.23101 30044 ft 452 kts 103°
2026-05-07 23:09 36.95803 -120.15503 30046 ft 453 kts 103°
2026-05-07 23:10 36.94142 -120.07913 30048 ft 452 kts 104°
2026-05-07 23:10 36.92485 -120.00385 30046 ft 453 kts 104°
2026-05-07 23:11 36.91038 -119.92752 30045 ft 450 kts 94°
2026-05-07 23:11 36.91478 -119.85028 30039 ft 446 kts 74°
2026-05-07 23:12 36.93675 -119.77805 30038 ft 444 kts 66°
2026-05-07 23:12 36.96012 -119.70658 30039 ft 444 kts 66°
2026-05-07 23:13 36.98323 -119.63492 30045 ft 444 kts 67°
2026-05-07 23:13 37.00640 -119.56327 30046 ft 444 kts 67°
2026-05-07 23:14 37.02968 -119.49162 30049 ft 444 kts 66°
2026-05-07 23:14 37.05297 -119.42006 30071 ft 444 kts 66°
2026-05-07 23:15 37.07612 -119.34847 30085 ft 443 kts 66°
2026-05-07 23:15 37.09918 -119.27694 30085 ft 444 kts 66°
2026-05-07 23:16 37.12215 -119.20518 30108 ft 443 kts 66°
2026-05-07 23:16 37.14503 -119.13363 30106 ft 442 kts 66°
2026-05-07 23:17 37.16782 -119.06262 30120 ft 442 kts 66°
2026-05-07 23:17 37.19068 -118.99112 30128 ft 442 kts 66°
2026-05-07 23:18 37.21351 -118.91955 30124 ft 441 kts 66°
2026-05-07 23:18 37.23623 -118.84806 30115 ft 440 kts 66°
2026-05-07 23:19 37.25889 -118.77656 30081 ft 441 kts 66°
2026-05-07 23:19 37.27749 -118.70323 30070 ft 444 kts 78°
2026-05-07 23:20 37.28386 -118.62589 30038 ft 446 kts 83°
2026-05-07 23:20 37.28985 -118.54842 30040 ft 446 kts 83°
2026-05-07 23:21 37.29590 -118.47084 30244 ft 448 kts 83°
2026-05-07 23:21 37.29888 -118.43178 30540 ft 450 kts 83°
2026-05-07 23:21 37.30185 -118.39257 30843 ft 452 kts 83°
2026-05-07 23:21 37.30480 -118.35322 31010 ft 452 kts 83°
2026-05-07 23:22 37.30767 -118.31455 31044 ft 438 kts 83°
2026-05-07 23:22 37.31319 -118.23951 31034 ft 428 kts 83°
2026-05-07 23:23 37.31868 -118.16517 31010 ft 427 kts 83°
2026-05-07 23:23 37.32410 -118.09094 30929 ft 427 kts 83°
2026-05-07 23:24 37.32948 -118.01668 30929 ft 427 kts 82°
2026-05-07 23:24 37.33486 -117.94241 30929 ft 427 kts 83°
2026-05-07 23:25 37.34019 -117.86816 30927 ft 427 kts 83°
2026-05-07 23:25 37.34539 -117.79389 30926 ft 426 kts 83°
2026-05-07 23:26 37.35056 -117.71966 30923 ft 426 kts 83°
2026-05-07 23:26 37.35568 -117.64540 30926 ft 426 kts 83°
2026-05-07 23:27 37.36332 -117.53407 30928 ft 426 kts 83°
2026-05-07 23:27 37.36839 -117.45980 30949 ft 426 kts 83°
2026-05-07 23:28 37.37335 -117.38554 30938 ft 427 kts 83°
2026-05-07 23:28 37.37500 -117.31096 30943 ft 430 kts 95°
2026-05-07 23:29 37.36849 -117.27419 30946 ft 433 kts 106°
2026-05-07 23:29 37.35661 -117.23930 30938 ft 436 kts 117°
2026-05-07 23:29 37.33972 -117.20753 30941 ft 439 kts 128°
2026-05-07 23:29 37.31946 -117.17881 30940 ft 439 kts 130°
2026-05-07 23:30 37.27874 -117.12215 30934 ft 440 kts 130°
2026-05-07 23:30 37.23763 -117.06505 30929 ft 441 kts 130°
2026-05-07 23:31 37.19645 -117.00795 30919 ft 441 kts 130°
2026-05-07 23:31 37.15521 -116.95091 30922 ft 441 kts 130°
2026-05-07 23:32 37.11399 -116.89393 30922 ft 441 kts 131°
2026-05-07 23:32 37.06609 -116.84560 30926 ft 444 kts 144°
2026-05-07 23:33 37.01507 -116.80188 30912 ft 445 kts 144°
2026-05-07 23:33 36.96408 -116.75806 30915 ft 444 kts 144°
2026-05-07 23:34 36.91313 -116.71430 30912 ft 444 kts 144°
2026-05-07 23:34 36.86212 -116.67059 30898 ft 444 kts 143°
2026-05-07 23:35 36.83645 -116.64862 30748 ft 452 kts 144°
2026-05-07 23:35 36.81042 -116.62642 30495 ft 454 kts 144°
2026-05-07 23:35 36.78437 -116.60425 30271 ft 453 kts 144°
2026-05-07 23:35 36.75833 -116.58213 30035 ft 452 kts 144°
2026-05-07 23:36 36.73240 -116.56009 29760 ft 451 kts 144°
2026-05-07 23:36 36.70652 -116.53810 29482 ft 450 kts 144°
2026-05-07 23:36 36.68083 -116.51626 29004 ft 445 kts 143°
2026-05-07 23:36 36.65592 -116.49372 28460 ft 440 kts 137°
2026-05-07 23:37 36.63418 -116.46741 27933 ft 433 kts 129°
2026-05-07 23:37 36.61446 -116.43937 27407 ft 429 kts 128°
2026-05-07 23:37 36.59487 -116.41160 26890 ft 425 kts 129°
2026-05-07 23:37 36.57542 -116.38409 26382 ft 422 kts 129°
2026-05-07 23:38 36.55611 -116.35681 25896 ft 418 kts 129°
2026-05-07 23:38 36.53696 -116.32977 25410 ft 415 kts 129°
2026-05-07 23:38 36.51790 -116.30288 24937 ft 413 kts 129°
2026-05-07 23:38 36.49898 -116.27623 24475 ft 410 kts 129°
2026-05-07 23:39 36.48011 -116.24970 24034 ft 408 kts 129°
2026-05-07 23:39 36.46163 -116.22366 23583 ft 407 kts 128°
2026-05-07 23:39 36.44274 -116.19703 23075 ft 404 kts 128°
2026-05-07 23:39 36.42451 -116.17136 22630 ft 399 kts 129°
2026-05-07 23:40 36.40623 -116.14566 22189 ft 395 kts 129°
2026-05-07 23:40 36.38810 -116.12023 21749 ft 391 kts 129°
2026-05-07 23:40 36.37016 -116.09511 21296 ft 387 kts 129°
2026-05-07 23:40 36.35239 -116.07026 20827 ft 383 kts 129°
2026-05-07 23:41 36.33480 -116.04567 20368 ft 380 kts 129°
2026-05-07 23:41 36.31731 -116.02126 19892 ft 377 kts 129°
2026-05-07 23:41 36.29997 -115.99706 19449 ft 374 kts 129°
2026-05-07 23:41 36.28286 -115.97317 19209 ft 364 kts 129°
2026-05-07 23:42 36.27184 -115.95779 19113 ft 357 kts 129°
2026-05-07 23:42 36.25555 -115.93506 18907 ft 350 kts 129°
2026-05-07 23:42 36.23970 -115.91218 18712 ft 351 kts 126°
2026-05-07 23:42 36.22453 -115.88869 18375 ft 348 kts 125°
2026-05-07 23:43 36.20984 -115.86503 17995 ft 345 kts 124°
2026-05-07 23:43 36.19533 -115.84139 17648 ft 344 kts 125°
2026-05-07 23:43 36.18088 -115.81797 17330 ft 340 kts 125°
2026-05-07 23:43 36.16649 -115.79486 16991 ft 338 kts 125°
2026-05-07 23:44 36.15212 -115.77197 16653 ft 335 kts 126°
2026-05-07 23:44 36.13909 -115.74828 16326 ft 332 kts 115°
2026-05-07 23:44 36.13004 -115.72229 15987 ft 328 kts 108°
2026-05-07 23:44 36.12206 -115.69595 15662 ft 326 kts 107°
2026-05-07 23:45 36.11403 -115.66975 15330 ft 325 kts 107°
2026-05-07 23:45 36.10597 -115.64368 15004 ft 324 kts 108°
2026-05-07 23:45 36.09792 -115.61773 14684 ft 323 kts 108°
2026-05-07 23:45 36.08986 -115.59175 14358 ft 323 kts 108°
2026-05-07 23:46 36.08180 -115.56586 14023 ft 322 kts 108°
2026-05-07 23:46 36.07380 -115.54007 13690 ft 321 kts 108°
2026-05-07 23:46 36.06586 -115.51438 13348 ft 319 kts 108°
2026-05-07 23:46 36.05796 -115.48885 13023 ft 317 kts 109°
2026-05-07 23:47 36.05014 -115.46359 12706 ft 313 kts 109°
2026-05-07 23:47 36.04247 -115.43888 12389 ft 311 kts 109°
2026-05-07 23:47 36.03475 -115.41399 12082 ft 310 kts 109°
2026-05-07 23:47 36.02703 -115.38910 11763 ft 311 kts 109°
2026-05-07 23:48 36.01946 -115.36413 11448 ft 310 kts 106°
2026-05-07 23:48 36.01540 -115.33816 11136 ft 307 kts 92°
2026-05-07 23:48 36.01420 -115.31178 10816 ft 308 kts 91°
2026-05-07 23:48 36.01297 -115.28535 10518 ft 308 kts 92°
2026-05-07 23:49 36.01169 -115.25898 10206 ft 308 kts 92°
2026-05-07 23:49 36.01036 -115.23257 9894 ft 308 kts 92°
2026-05-07 23:49 36.00900 -115.20620 9566 ft 307 kts 93°
2026-05-07 23:49 36.00765 -115.17995 9412 ft 306 kts 93°
2026-05-07 23:50 36.00632 -115.15389 9284 ft 300 kts 93°
2026-05-07 23:50 36.00506 -115.12871 9153 ft 286 kts 93°
2026-05-07 23:50 36.00386 -115.10499 9037 ft 268 kts 93°
2026-05-07 23:50 36.00270 -115.08221 8784 ft 265 kts 93°
2026-05-07 23:51 36.00154 -115.05957 8526 ft 263 kts 93°
2026-05-07 23:51 36.00039 -115.03712 8273 ft 261 kts 93°
2026-05-07 23:51 35.99925 -115.01481 8069 ft 257 kts 93°
2026-05-07 23:51 35.99815 -114.99299 7894 ft 252 kts 92°
2026-05-07 23:52 35.99680 -114.97148 7582 ft 250 kts 93°
2026-05-07 23:52 35.99544 -114.95010 7315 ft 249 kts 93°
2026-05-07 23:52 35.99415 -114.92881 7046 ft 248 kts 93°
2026-05-07 23:52 35.99293 -114.90766 6951 ft 243 kts 93°
2026-05-07 23:53 35.99279 -114.88736 6954 ft 238 kts 76°
2026-05-07 23:53 35.99992 -114.86946 6957 ft 232 kts 43°
2026-05-07 23:53 36.01338 -114.85951 6962 ft 226 kts 11°
2026-05-07 23:53 36.02865 -114.86023 6934 ft 220 kts 338°
2026-05-07 23:54 36.04168 -114.86959 6689 ft 215 kts 322°
2026-05-07 23:54 36.05326 -114.88049 6550 ft 203 kts 319°
2026-05-07 23:54 36.06192 -114.89357 6268 ft 195 kts 301°
2026-05-07 23:54 36.06874 -114.90778 5926 ft 191 kts 299°
2026-05-07 23:55 36.07338 -114.92324 5432 ft 195 kts 277°
2026-05-07 23:55 36.07329 -114.93986 4999 ft 194 kts 267°
2026-05-07 23:55 36.07292 -114.95654 4663 ft 194 kts 269°
2026-05-07 23:55 36.07295 -114.97325 4357 ft 194 kts 271°
2026-05-07 23:56 36.07339 -114.98996 4112 ft 194 kts 272°
2026-05-07 23:56 36.07380 -115.00661 3901 ft 194 kts 271°
2026-05-07 23:56 36.07390 -115.02313 3677 ft 187 kts 269°
2026-05-07 23:56 36.07383 -115.03869 3404 ft 177 kts 268°
2026-05-07 23:57 36.07363 -115.05370 3242 ft 174 kts 268°
2026-05-07 23:57 36.07337 -115.06862 3041 ft 172 kts 270°
2026-05-07 23:57 36.07356 -115.08281 2822 ft 155 kts 271°
2026-05-07 23:57 36.07379 -115.09554 2560 ft 143 kts 271°
2026-05-07 23:58 36.07370 -115.10759 2338 ft 138 kts 269°
2026-05-07 23:58 36.07370 -115.11940 2185 ft 137 kts 269°
2026-05-07 23:58 36.07367 -115.13105 2072 ft 129 kts 269°
2026-05-07 23:58 36.07367 -115.14041 2083 ft 85 kts 270°
2026-05-07 23:59 36.07367 -115.14629 2092 ft 63 kts 270°
2026-05-07 23:59 36.07421 -115.14921 2097 ft 21 kts 291°
2026-05-07 23:59 36.07490 -115.15079 2100 ft 21 kts 311°
2026-05-07 23:59 36.07579 -115.15161 2107 ft 11 kts 336°
2026-05-08 00:00 36.07642 -115.15196 2112 ft 11 kts 333°
2026-05-08 00:00 36.07720 -115.15247 2108 ft 16 kts 331°
2026-05-08 00:00 36.07805 -115.15195 2101 ft 19 kts 86°
2026-05-08 00:00 36.07800 -115.15018 2100 ft 22 kts 98°
2026-05-08 00:01 36.07785 -115.14821 2099 ft 25 kts 94°
2026-05-08 00:01 36.07771 -115.14598 2097 ft 27 kts 94°
2026-05-08 00:01 36.07755 -115.14354 2096 ft 30 kts 94°
2026-05-08 00:01 36.07779 -115.14162 2094 ft 18 kts 26°
2026-05-08 00:02 36.07908 -115.14159 2095 ft 19 kts 359°
2026-05-08 00:02 36.08048 -115.14159 2095 ft 21 kts
2026-05-08 00:02 36.08141 -115.14155 2095 ft 10 kts 18°
2026-05-08 00:02 36.08190 -115.14080 2094 ft 13 kts 52°
2026-05-08 00:03 36.08225 -115.14023 2093 ft 4 kts 52°
2026-05-08 00:03 36.08230 -115.14015 2093 ft 0 kts 53°